Location: Prague
(50.0830°N, 14.4670°E)
Time: 12:42:25
(UTC+01:00)

STARLINK-1722 - Pass Details

Date: 22 September 2020
Orbit: 378 x 381 km, 53.0° (Epoch: 25 October)

Event Time Altitude Azimuth Distance (km) Brightness Sun altitude
Exits shadow 03:58:29 16° 67° (ENE) 1,028 5.8 -26.4°
Drops below altitude 10° 03:59:10 10° 68° (ENE) 1,307 6.5 -26.3°
Enters shadow 04:54:23 -70° 260° (W) 12,372 10.5 -18.6°
